Weather History for K4A6 - April, 2013

Change the Weather History Date:

Sunday, April 28, 2013

  Actual Average (KHSV) Record (KHSV)
Temperature  
Mean Temperature 60 °F 65 °F  
Max Temperature 64 °F 77 °F 90 °F (1989)
Min Temperature 57 °F 54 °F 34 °F (1928)
Degree Days  
Heating Degree Days 4 3  
Month to date heating degree days 150  
Since 1 July heating degree days 2970  
Cooling Degree Days 0 3  
Month to date cooling degree days 52  
Year to date cooling degree days 66  
Growing Degree Days 10 (Base 50)    
Moisture  
Dew Point 59 °F    
Average Humidity 92    
Maximum Humidity 100    
Minimum Humidity 73    
Precipitation  
Precipitation 0.74 in 0.16 in 3.50 in (1963)
Month to date precipitation 4.03  
Year to date precipitation 18.97  
Snow  
Snow 0.00 in - - ()
Month to date snowfall  
Since 1 July snowfall  
Snow Depth -    
Sea Level Pressure  
Sea Level Pressure 30.00 in    
Wind  
Wind Speed 6 mph (SSW)    
Max Wind Speed 18 mph    
Max Gust Speed 32 mph    
Visibility 8 miles    
Events Rain , Thunderstorm    
T = Trace of Precipitation, MM = Missing Value Source: NWS Daily Summary

Daily Weather History Graph

Daily Weather History Graph

Search for Another Location

Airport or City:

Trip Planner

Search our weather history database for the weather conditions in past years. The results will help you decide how hot, cold, wet, or windy it might be!

Date:

Astronomy

Apr. 28, 2013 Rise Set
Actual Time 5:56 AM CDT 7:26 PM CDT
Civil Twilight 5:29 AM CDT 7:53 PM CDT
Nautical Twilight 4:57 AM CDT 8:25 PM CDT
Astronomical Twilight 4:24 AM CDT 8:59 PM CDT
Moon 10:52 PM CDT (4/28) 8:17 AM CDT (4/28)
Length of Visible Light 14h 23m
Length of Day
13h 30m
Waning Gibbous, 88% of the Moon is Illuminated
Apr 28
Waning Gibbous
May 2
Last Quarter
May 9
New
May 17
First Quarter
May 24
Full

Hourly Weather History & Observations

Time (CDT) Temp. Dew Point Humidity Pressure Visibility Wind Dir Wind Speed Gust Speed Precip Events Conditions
12:15 AM 62.6 °F 55.4 °F 77% 30.06 in 10.0 mi WSW 3.5 mph - N/A   Overcast
12:35 AM 64.4 °F 55.4 °F 73% 30.06 in 10.0 mi SW 6.9 mph 19.6 mph N/A   Overcast
12:55 AM 64.4 °F 55.4 °F 73% 30.06 in 10.0 mi SSW 5.8 mph - N/A Thunderstorm Overcast
1:15 AM 62.6 °F 55.4 °F 77% 30.05 in 10.0 mi SSE 18.4 mph 32.2 mph N/A   Overcast
1:35 AM 62.6 °F 55.4 °F 77% 30.04 in 10.0 mi South 15.0 mph 28.8 mph N/A Thunderstorm Overcast
1:55 AM 62.6 °F 55.4 °F 77% 30.03 in 10.0 mi SSW 8.1 mph 25.3 mph N/A   Overcast
2:15 AM 62.6 °F 55.4 °F 77% 30.02 in 10.0 mi South 9.2 mph 21.9 mph N/A Thunderstorm Overcast
2:35 AM 62.6 °F 55.4 °F 77% 30.01 in 10.0 mi SW 8.1 mph 21.9 mph N/A Thunderstorm Overcast
2:55 AM 62.6 °F 55.4 °F 77% 30.00 in 10.0 mi SW 6.9 mph - N/A Thunderstorm Overcast
3:15 AM 62.6 °F 55.4 °F 77% 30.00 in 10.0 mi South 6.9 mph 17.3 mph N/A Thunderstorm Overcast
3:35 AM 62.6 °F 55.4 °F 77% 29.99 in 10.0 mi South 8.1 mph - N/A Thunderstorm Thunderstorm
3:55 AM 62.6 °F 57.2 °F 82% 30.03 in 5.0 mi WSW 6.9 mph 18.4 mph 0.08 in Rain , Thunderstorm Heavy Rain
4:15 AM 59.0 °F 59.0 °F 100% 30.02 in 3.0 mi East 5.8 mph - 0.06 in Rain , Thunderstorm Light Thunderstorms and Rain
4:35 AM 59.0 °F 59.0 °F 100% 29.98 in 5.0 mi SSE 5.8 mph - 0.07 in Rain , Thunderstorm Light Rain
4:55 AM 59.0 °F 59.0 °F 100% 29.99 in 10.0 mi Calm Calm - 0.08 in Rain , Thunderstorm Light Rain
5:15 AM 59.0 °F 59.0 °F 100% 30.00 in 7.0 mi Calm Calm - N/A Thunderstorm Mostly Cloudy
5:35 AM 59.0 °F 59.0 °F 100% 30.00 in 9.0 mi SSE 4.6 mph - N/A Thunderstorm Overcast
5:55 AM 59.0 °F 59.0 °F 100% 30.01 in 3.0 mi Calm Calm - 0.10 in Rain , Thunderstorm Heavy Thunderstorms and Rain
6:15 AM 59.0 °F 59.0 °F 100% 30.01 in 3.0 mi Calm Calm - 0.05 in Rain , Thunderstorm Rain
6:35 AM 59.0 °F 59.0 °F 100% 30.02 in 4.0 mi Calm Calm - 0.10 in Rain Light Rain
6:55 AM 59.0 °F 59.0 °F 100% 30.02 in 7.0 mi South 4.6 mph - 0.18 in Rain , Thunderstorm Light Rain
7:15 AM 59.0 °F 59.0 °F 100% 30.03 in 10.0 mi South 3.5 mph - N/A   Overcast
7:35 AM 60.8 °F 59.0 °F 94% 30.02 in 10.0 mi SSW 9.2 mph - N/A Thunderstorm Overcast
8:15 AM 62.6 °F 59.0 °F 88% 30.01 in 4.0 mi South 12.7 mph 19.6 mph 0.07 in Rain , Thunderstorm Light Thunderstorms and Rain
8:35 AM 62.6 °F 59.0 °F 88% 30.01 in 10.0 mi SSW 10.4 mph 16.1 mph 0.07 in Thunderstorm Mostly Cloudy
8:55 AM 62.6 °F 59.0 °F 88% 30.02 in 10.0 mi NW 6.9 mph - 0.07 in   Overcast
9:15 AM 62.6 °F 59.0 °F 88% 30.02 in 10.0 mi Calm Calm - N/A   Overcast
9:35 AM 62.6 °F 60.8 °F 94% 30.01 in 7.0 mi SE 3.5 mph - 0.01 in   Overcast
9:55 AM 62.6 °F 62.6 °F 100% 30.01 in 10.0 mi South 5.8 mph - 0.01 in   Overcast
10:15 AM 64.4 °F 62.6 °F 94% 30.01 in 9.0 mi SSW 6.9 mph - N/A Thunderstorm Overcast
10:35 AM 64.4 °F 62.6 °F 94% 30.00 in 9.0 mi SW 3.5 mph - N/A   Mostly Cloudy
10:55 AM 64.4 °F 62.6 °F 94% 30.01 in 9.0 mi SSW 6.9 mph - N/A Thunderstorm Thunderstorm
11:15 AM 64.4 °F 62.6 °F 94% 30.00 in 5.0 mi SSW 8.1 mph - N/A Rain Light Rain
11:35 AM 64.4 °F 62.6 °F 94% 30.03 in 5.0 mi SW 6.9 mph - 0.01 in Rain , Thunderstorm Light Rain
11:55 AM 64.4 °F 62.6 °F 94% 30.01 in 2.0 mi Calm Calm - 0.04 in Rain , Thunderstorm Thunderstorms and Rain
12:15 PM 64.4 °F 64.4 °F 100% 30.01 in 6.0 mi Calm Calm - N/A   Mostly Cloudy
12:35 PM 64.4 °F 62.6 °F 94% 30.01 in 9.0 mi Calm Calm - N/A Thunderstorm Overcast
12:55 PM 64.4 °F 62.6 °F 94% 30.02 in 6.0 mi WNW 11.5 mph 17.3 mph 0.01 in Rain , Thunderstorm Light Rain
1:15 PM 64.4 °F 59.0 °F 83% 30.00 in 8.0 mi West 4.6 mph 16.1 mph 0.01 in Rain , Thunderstorm Light Rain
1:35 PM 64.4 °F 59.0 °F 83% 29.99 in 8.0 mi SSW 4.6 mph - 0.02 in Rain Light Rain
1:55 PM 64.4 °F 59.0 °F 83% 29.98 in 8.0 mi South 8.1 mph - 0.03 in Rain , Thunderstorm Light Rain
2:15 PM 62.6 °F 62.6 °F 100% 29.98 in 5.0 mi South 8.1 mph - 0.01 in Rain , Thunderstorm Light Rain
2:35 PM 62.6 °F 60.8 °F 94% 29.94 in 3.0 mi SSE 13.8 mph 18.4 mph 0.07 in Rain Rain
2:55 PM 62.6 °F 59.0 °F 88% 29.95 in 10.0 mi West 9.2 mph - 0.08 in Rain Light Rain
3:15 PM 60.8 °F 59.0 °F 94% 29.98 in 4.0 mi WSW 9.2 mph - 0.04 in Rain Rain
3:35 PM 60.8 °F 57.2 °F 88% 29.98 in 9.0 mi SSW 6.9 mph 19.6 mph 0.05 in Rain Light Rain
3:55 PM 60.8 °F 59.0 °F 94% 29.98 in 10.0 mi SW 4.6 mph - 0.05 in Rain Light Rain
4:15 PM 60.8 °F 59.0 °F 94% 29.98 in 10.0 mi SW 9.2 mph - 0.01 in Rain Light Rain
4:35 PM 60.8 °F 57.2 °F 88% 29.97 in 10.0 mi SW 9.2 mph 18.4 mph 0.01 in   Scattered Clouds
4:55 PM 60.8 °F 59.0 °F 94% 29.97 in 10.0 mi SSW 3.5 mph 16.1 mph 0.01 in   Scattered Clouds
5:15 PM 60.8 °F 59.0 °F 94% 29.95 in 10.0 mi South 4.6 mph - N/A   Overcast
5:35 PM 60.8 °F 57.2 °F 88% 29.96 in 10.0 mi WSW 5.8 mph - N/A   Mostly Cloudy
5:55 PM 60.8 °F 59.0 °F 94% 29.97 in 10.0 mi SSW 3.5 mph - N/A   Mostly Cloudy
6:15 PM 60.8 °F 59.0 °F 94% 29.98 in 10.0 mi SSE 3.5 mph - N/A   Overcast
6:35 PM 60.8 °F 59.0 °F 94% 29.99 in 10.0 mi SSW 3.5 mph - N/A   Mostly Cloudy
6:55 PM 60.8 °F 59.0 °F 94% 29.98 in 10.0 mi South 4.6 mph - N/A   Mostly Cloudy
7:15 PM 59.0 °F 59.0 °F 100% 29.97 in 10.0 mi SSW 4.6 mph - N/A   Mostly Cloudy
7:35 PM 59.0 °F 57.2 °F 94% 29.98 in 10.0 mi SSW 3.5 mph - N/A   Mostly Cloudy
7:55 PM 59.0 °F 59.0 °F 100% 29.98 in 10.0 mi Calm Calm - N/A   Overcast
8:15 PM 59.0 °F 59.0 °F 100% 29.98 in 10.0 mi Calm Calm - N/A   Mostly Cloudy
8:35 PM 59.0 °F 59.0 °F 100% 29.98 in 10.0 mi Calm Calm - N/A   Overcast
8:55 PM 59.0 °F 59.0 °F 100% 29.98 in 10.0 mi Calm Calm - N/A   Overcast
9:15 PM 59.0 °F 59.0 °F 100% 29.98 in 10.0 mi Calm Calm - N/A   Mostly Cloudy
9:35 PM 59.0 °F 59.0 °F 100% 29.99 in 10.0 mi Calm Calm - N/A   Mostly Cloudy
9:55 PM 57.2 °F 57.2 °F 100% 29.98 in 10.0 mi SSW 4.6 mph - N/A   Partly Cloudy
10:15 PM 57.2 °F 57.2 °F 100% 29.99 in 9.0 mi SW 3.5 mph - N/A   Scattered Clouds
10:55 PM 59.0 °F 57.2 °F 94% 29.99 in 10.0 mi Calm Calm - N/A   Overcast
11:15 PM 59.0 °F 59.0 °F 100% 29.99 in 10.0 mi Calm Calm - N/A   Overcast
11:35 PM 59.0 °F 57.2 °F 94% 29.99 in 10.0 mi Calm Calm - N/A   Overcast
11:55 PM 59.0 °F 57.2 °F 94% 30.00 in 10.0 mi Calm Calm - N/A   Overcast